KI4KWR-1 Weather Reports


time (UTC)temp
C
wind
direction
speed
KPH
gust
KPH
rain 1hr
cm
rain 24hr
cm
rain mn
cm
humidity
%
barometer
mb
20260906070004 25 95 8.0 16.1 0.00 0.00 0.00 76 985.8
20260906064504 25 356 8.0 16.1 0.00 0.00 0.00 78 985.7
20260906063003 24 345 4.8 4.8 0.00 0.00 0.00 79 984.6
20260906061503 24 122 0.0 8.0 0.00 0.00 0.00 79 984.5
20260906060003 24 103 4.8 8.0 0.00 0.00 0.00 79 984.3
20260906054503 22 22 0.0 0.0 0.00 0.00 0.00 85 983.8
20260906053003 23 135 0.0 0.0 0.00 0.00 0.00 85 983.6
20260906051505 23 248 0.0 0.0 0.00 0.00 0.00 85 983.4
20260906050004 23 112 0.0 0.0 0.00 0.00 0.00 84 983.9
20260906044503 23 112 0.0 0.0 0.00 0.00 0.00 84 984.1
20260906043004 23 112 0.0 0.0 0.00 0.00 0.00 83 984.1
20260906041503 23 112 0.0 0.0 0.00 0.00 0.00 83 984.1
20260906040004 23 270 0.0 0.0 0.00 0.00 0.00 81 984.2
20260906034504 23 270 0.0 0.0 0.00 0.00 0.00 80 984.1
20260906033004 24 112 0.0 0.0 0.00 0.00 0.00 79 984.1
20260906031504 24 112 0.0 0.0 0.00 0.00 0.00 78 984.1
20260906030004 24 135 0.0 3.2 0.00 0.00 0.00 78 983.9
20260906024503 24 112 3.2 3.2 0.00 0.00 0.00 78 983.7
20260906023003 24 135 0.0 3.2 0.00 0.00 0.00 76 983.7
20260906021503 25 112 0.0 1.6 0.00 0.00 0.00 75 983.4
20260906020005 25 180 0.0 0.0 0.00 0.00 0.00 72 983.1
20260906014504 25 0 0.0 1.6 0.00 0.00 0.00 70 983.2
20260906013004 26 248 3.2 3.2 0.00 0.00 0.00 69 983.1
20260906011504 26 0 0.0 3.2 0.00 0.00 0.00 67 983.0
20260906010004 26 180 1.6 4.8 0.00 0.00 0.00 66 982.9
20260906004504 27 112 0.0 0.0 0.00 0.00 0.00 61 982.9
20260906003004 28 151 0.0 0.0 0.00 0.00 0.00 60 982.7
20260906001503 28 112 3.2 8.0 0.00 0.00 0.00 59 983.0
20260906000004 29 112 8.0 9.7 0.00 0.00 0.00 58 983.1
20260905234504 30 112 4.8 8.0 0.00 0.00 0.00 57 982.8
20260905233004 31 115 4.8 9.7 0.00 0.00 0.00 57 982.9
20260905231503 33 90 9.7 16.1 0.00 0.00 0.00 50 982.8
20260905230003 35 303 4.8 9.7 0.00 0.00 0.00 49 982.4
20260905224503 36 237 6.4 11.3 0.00 0.00 0.00 46 982.4
20260905223004 36 276 4.8 12.9 0.00 0.00 0.00 46 982.4
20260905221503 37 272 8.0 12.9 0.00 0.00 0.00 43 982.3
20260905220003 37 285 4.8 11.3 0.00 0.00 0.00 43 982.5
20260905214504 37 268 3.2 11.3 0.00 0.00 0.00 42 982.6
20260905213004 37 252 6.4 11.3 0.00 0.00 0.00 42 982.5
20260905211503 37 303 6.4 11.3 0.00 0.00 0.00 45 982.6
20260905210004 36 337 4.8 9.7 0.00 0.00 0.00 45 982.6
20260905204503 35 2 4.8 9.7 0.00 0.00 0.00 48 982.8
20260905203004 36 339 3.2 8.0 0.00 0.00 0.00 44 983.0
20260905201504 36 155 3.2 9.7 0.00 0.00 0.00 44 983.2
20260905200004 35 341 4.8 9.7 0.00 0.00 0.00 46 983.6
20260905194503 36 8 4.8 9.7 0.00 0.00 0.00 47 983.7
20260905193003 37 205 4.8 11.3 0.00 0.00 0.00 44 983.8
20260905191504 37 308 4.8 9.7 0.00 0.00 0.00 46 984.0
20260905190003 35 41 4.8 9.7 0.00 0.00 0.00 50 984.4
20260905184504 35 332 3.2 8.0 0.00 0.00 0.00 49 984.6
20260905183004 36 30 4.8 9.7 0.00 0.00 0.00 47 984.7
20260905181504 35 184 4.8 9.7 0.00 0.00 0.00 49 984.9
20260905180004 37 349 4.8 8.0 0.00 0.00 0.00 47 985.0
20260905174504 35 258 4.8 9.7 0.00 0.00 0.00 49 985.0
20260905173004 35 128 3.2 8.0 0.00 0.00 0.00 51 985.1
20260905171504 35 323 4.8 9.7 0.00 0.00 0.00 52 985.1
20260905170004 35 23 3.2 9.7 0.00 0.00 0.00 52 985.5
20260905164504 35 294 4.8 8.0 0.00 0.00 0.00 52 985.7
20260905163004 33 321 3.2 9.7 0.00 0.00 0.00 56 985.8
20260905161504 31 292 8.0 12.9 0.00 0.00 0.00 63 986.0
20260905160003 31 261 3.2 11.3 0.00 0.00 0.00 65 986.1
20260905154503 30 16 3.2 9.7 0.00 0.00 0.00 71 986.1
20260905153003 28 23 0.0 9.7 0.00 0.00 0.00 76 986.0
20260905151503 26 326 0.0 8.0 0.00 0.00 0.00 92 986.1
20260905150003 26 303 4.8 19.3 0.00 0.00 0.00 91 986.1
20260905144504 30 313 0.0 0.0 0.00 0.00 0.00 64 986.3
20260905143004 29 272 0.0 0.0 0.00 0.00 0.00 68 986.3
20260905141504 28 284 0.0 0.0 0.00 0.00 0.00 72 986.5
20260905140004 27 32 0.0 0.0 0.00 0.00 0.00 76 986.5
20260905134503 26 237 0.0 0.0 0.00 0.00 0.00 78 986.5
20260905133004 26 140 0.0 0.0 0.00 0.00 0.00 82 986.5
20260905131503 25 167 0.0 0.0 0.00 0.00 0.00 83 986.5
20260905130004 25 194 0.0 0.0 0.00 0.00 0.00 87 986.5
20260905124503 24 193 0.0 0.0 0.00 0.00 0.00 89 986.5
20260905123003 23 146 0.0 0.0 0.00 0.00 0.00 91 986.2
20260905121503 22 225 0.0 0.0 0.00 0.00 0.00 92 986.1
20260905120004 21 229 0.0 0.0 0.00 0.00 0.00 92 986.1
20260905114503 21 225 0.0 0.0 0.00 0.00 0.00 92 986.0
20260905113003 21 144 0.0 0.0 0.00 0.00 0.00 92 985.8
20260905111504 21 158 0.0 0.0 0.00 0.00 0.00 92 985.5
20260905110004 21 245 0.0 0.0 0.00 0.00 0.00 92 985.4
20260905104504 21 22 0.0 0.0 0.00 0.00 0.00 92 985.2
20260905103003 21 292 0.0 0.0 0.00 0.00 0.00 91 985.1
20260905101504 21 224 0.0 0.0 0.00 0.00 0.00 91 985.0
20260905100004 21 90 0.0 0.0 0.00 0.00 0.00 91 985.2
20260905094504 21 279 0.0 0.0 0.00 0.00 0.00 91 985.1
20260905093003 21 270 0.0 0.0 0.00 0.00 0.00 91 985.1
20260905091504 21 292 0.0 0.0 0.00 0.00 0.00 90 985.1
20260905090004 21 272 0.0 0.0 0.00 0.00 0.00 90 984.9
20260905084504 22 180 0.0 0.0 0.00 0.00 0.00 90 985.0
20260905083003 22 180 0.0 0.0 0.00 0.00 0.00 90 985.0
20260905081504 22 112 0.0 0.0 0.00 0.00 0.00 90 984.9
20260905080004 22 180 0.0 0.0 0.00 0.00 0.00 90 984.7
20260905074503 22 22 0.0 0.0 0.00 0.00 0.00 90 984.7
20260905073004 22 68 0.0 0.0 0.00 0.00 0.00 89 984.7
20260905071504 22 158 0.0 0.0 0.00 0.00 0.00 89 984.7